Weather History for Wink, TX

Change the Weather History Date:

Tuesday, October 28, 2014

  Actual Average Record
Temperature  
Mean Temperature 63 °F -  
Max Temperature 73 °F 73 °F 90 °F (1950)
Min Temperature 53 °F 44 °F 30 °F (1970)
Degree Days  
Heating Degree Days 2    
Growing Degree Days 13 (Base 50)    
Moisture  
Dew Point 40 °F    
Average Humidity 44    
Maximum Humidity 62    
Minimum Humidity 29    
Precipitation  
Precipitation 0.00 in - - ()
Sea Level Pressure  
Sea Level Pressure 30.01 in    
Wind  
Wind Speed 8 mph (NE)    
Max Wind Speed 17 mph    
Max Gust Speed 25 mph    
Visibility 10 miles    
Events      
Averages and records for this station are not official NWS values.
T = Trace of Precipitation, MM = Missing Value Source: NWS Daily Summary

Daily Weather History Graph

Daily Weather History Graph

Search for Another Location

Airport:

Trip Planner

Search our weather history database for the weather conditions in past years. The results will help you decide how hot, cold, wet, or windy it might be!

Date:

Astronomy

Oct. 28, 2014 Rise Set
Actual Time 8:05 AM CDT 7:06 PM CDT
Civil Twilight 7:40 AM CDT 7:31 PM CDT
Nautical Twilight 7:12 AM CDT 8:00 PM CDT
Astronomical Twilight 6:43 AM CDT 8:28 PM CDT
Moon 12:30 PM CDT (10/28) 11:20 PM CDT (10/28)
Length of Visible Light 11h 50m
Length of Day
11h 00m
Waxing Crescent, 24% of the Moon is Illuminated
Oct 28
Waxing Crescent
Oct 30
First Quarter
Nov 6
Full
Nov 14
Last Quarter
Nov 22
New

Hourly Weather History & Observations

Time (CDT) Temp. Dew Point Humidity Pressure Visibility Wind Dir Wind Speed Gust Speed Precip Events Conditions
12:53 AM 69.1 °F 46.0 °F 44% 29.80 in 10.0 mi West 4.6 mph - N/A   Clear
1:53 AM 64.0 °F 46.9 °F 54% 29.81 in 10.0 mi Calm Calm - N/A   Clear
2:53 AM 62.1 °F 48.9 °F 62% 29.83 in 10.0 mi ENE 5.8 mph - N/A   Clear
3:53 AM 62.1 °F 45.0 °F 53% 29.86 in 10.0 mi NNE 17.3 mph - N/A   Clear
4:53 AM 59.0 °F 42.1 °F 53% 29.90 in 10.0 mi NNE 15.0 mph 25.3 mph N/A   Clear
5:53 AM 57.9 °F 39.9 °F 51% 29.93 in 10.0 mi NNE 15.0 mph - N/A   Clear
6:53 AM 55.9 °F 39.0 °F 53% 29.98 in 10.0 mi North 13.8 mph - N/A   Clear
7:53 AM 53.1 °F 37.9 °F 57% 30.04 in 10.0 mi North 11.5 mph - N/A   Clear
8:53 AM 54.0 °F 35.1 °F 49% 30.08 in 10.0 mi North 12.7 mph - N/A   Clear
9:53 AM 55.9 °F 30.9 °F 39% 30.11 in 10.0 mi North 12.7 mph - N/A   Clear
10:53 AM 60.1 °F 32.0 °F 35% 30.12 in 10.0 mi Variable 5.8 mph - N/A   Clear
11:53 AM 62.1 °F 32.0 °F 32% 30.11 in 10.0 mi NNE 9.2 mph - N/A   Clear
12:53 PM 64.0 °F 34.0 °F 33% 30.09 in 10.0 mi NNE 8.1 mph - N/A   Clear
1:53 PM 68.0 °F 36.0 °F 31% 30.06 in 10.0 mi Variable 5.8 mph - N/A   Clear
2:53 PM 70.0 °F 37.0 °F 30% 30.03 in 10.0 mi NNW 9.2 mph - N/A   Clear
3:53 PM 71.1 °F 37.9 °F 30% 30.01 in 10.0 mi East 4.6 mph - N/A   Clear
4:53 PM 73.0 °F 39.0 °F 29% 30.00 in 10.0 mi NNE 4.6 mph - N/A   Clear
5:53 PM 73.0 °F 39.0 °F 29% 30.00 in 10.0 mi East 5.8 mph - N/A   Clear
6:53 PM 71.1 °F 39.9 °F 32% 30.02 in 10.0 mi Calm Calm - N/A   Clear
7:53 PM 66.0 °F 41.0 °F 40% 30.05 in 10.0 mi SSE 3.5 mph - N/A   Clear
8:53 PM 64.0 °F 43.0 °F 46% 30.07 in 10.0 mi SE 4.6 mph - N/A   Clear
9:53 PM 60.1 °F 43.0 °F 53% 30.09 in 10.0 mi East 3.5 mph - N/A   Clear
10:53 PM 60.1 °F 43.0 °F 53% 30.09 in 10.0 mi East 5.8 mph - N/A   Clear
11:53 PM 57.0 °F 43.0 °F 59% 30.10 in 10.0 mi East 4.6 mph - N/A   Clear